| time (UTC) | temp F | wind direction | speed MPH | gust MPH | rain 1hr in | rain 24hr in | rain mn in | humidity % | barometer mb |
| 20260503212717 | 77 | 279 | 3.0 | 10.0 | 0.00 | 0.00 | 0.00 | 30 | 1013.0 |
| 20260503212003 | 77 | 235 | 4.0 | 12.0 | 0.00 | 0.00 | 0.00 | 29 | 1013.1 |
| 20260503211503 | 76 | 235 | 4.0 | 12.0 | 0.00 | 0.00 | 0.00 | 25 | 1013.1 |
| 20260503211003 | 76 | 243 | 4.0 | 9.0 | 0.00 | 0.00 | 0.00 | 27 | 1013.2 |
| 20260503210003 | 76 | 233 | 4.0 | 13.0 | 0.00 | 0.00 | 0.00 | 27 | 1013.2 |
| 20260503205503 | 76 | 233 | 4.0 | 13.0 | 0.00 | 0.00 | 0.00 | 25 | 1013.3 |
| 20260503205218 | 77 | 229 | 4.0 | 11.0 | 0.00 | 0.00 | 0.00 | 25 | 1013.3 |
| 20260503204503 | 77 | 236 | 3.0 | 11.0 | 0.00 | 0.00 | 0.00 | 26 | 1013.4 |
| 20260503204003 | 77 | 241 | 4.0 | 8.0 | 0.00 | 0.00 | 0.00 | 29 | 1013.4 |
| 20260503203503 | 77 | 232 | 5.0 | 13.0 | 0.00 | 0.00 | 0.00 | 30 | 1013.4 |
| 20260503203003 | 77 | 222 | 5.0 | 13.0 | 0.00 | 0.00 | 0.00 | 29 | 1013.4 |
| 20260503202717 | 76 | 220 | 5.0 | 13.0 | 0.00 | 0.00 | 0.00 | 29 | 1013.4 |
| 20260503202003 | 76 | 221 | 6.0 | 11.0 | 0.00 | 0.00 | 0.00 | 27 | 1013.5 |
| 20260503201503 | 76 | 223 | 6.0 | 11.0 | 0.00 | 0.00 | 0.00 | 28 | 1013.5 |
| 20260503201003 | 76 | 220 | 6.0 | 11.0 | 0.00 | 0.00 | 0.00 | 28 | 1013.6 |
| 20260503200503 | 76 | 221 | 6.0 | 11.0 | 0.00 | 0.00 | 0.00 | 27 | 1013.6 |
| 20260503200003 | 76 | 222 | 5.0 | 13.0 | 0.00 | 0.00 | 0.00 | 29 | 1013.6 |
| 20260503195503 | 76 | 222 | 3.0 | 13.0 | 0.00 | 0.00 | 0.00 | 28 | 1013.7 |
| 20260503195003 | 76 | 226 | 3.0 | 9.0 | 0.00 | 0.00 | 0.00 | 29 | 1013.8 |
| 20260503194503 | 76 | 230 | 3.0 | 9.0 | 0.00 | 0.00 | 0.00 | 29 | 1013.8 |
| 20260503194003 | 76 | 236 | 2.0 | 9.0 | 0.00 | 0.00 | 0.00 | 32 | 1013.9 |
| 20260503193503 | 76 | 232 | 2.0 | 9.0 | 0.00 | 0.00 | 0.00 | 31 | 1013.9 |
| 20260503193003 | 76 | 228 | 1.0 | 7.0 | 0.00 | 0.00 | 0.00 | 33 | 1014.0 |
| 20260503192503 | 76 | 231 | 0.0 | 7.0 | 0.00 | 0.00 | 0.00 | 30 | 1014.1 |
| 20260503192003 | 76 | 354 | 0.0 | 2.0 | 0.00 | 0.00 | 0.00 | 35 | 1014.1 |
| 20260503191503 | 76 | 335 | 1.0 | 2.0 | 0.00 | 0.00 | 0.00 | 35 | 1014.2 |
| 20260503191003 | 76 | 291 | 1.0 | 3.0 | 0.00 | 0.00 | 0.00 | 34 | 1014.2 |
| 20260503190503 | 76 | 298 | 1.0 | 4.0 | 0.00 | 0.00 | 0.00 | 36 | 1014.3 |
| 20260503190003 | 75 | 340 | 1.0 | 4.0 | 0.00 | 0.00 | 0.00 | 32 | 1014.3 |
| 20260503185716 | 76 | 341 | 1.0 | 4.0 | 0.00 | 0.00 | 0.00 | 31 | 1014.4 |
| 20260503185003 | 76 | 275 | 1.0 | 3.0 | 0.00 | 0.00 | 0.00 | 34 | 1014.4 |
| 20260503184503 | 76 | 324 | 1.0 | 3.0 | 0.00 | 0.00 | 0.00 | 35 | 1014.5 |
| 20260503184003 | 76 | 324 | 1.0 | 3.0 | 0.00 | 0.00 | 0.00 | 35 | 1014.6 |
| 20260503183503 | 76 | 304 | 0.0 | 4.0 | 0.00 | 0.00 | 0.00 | 36 | 1014.5 |
| 20260503183003 | 76 | 0 | 4.0 | 4.0 | 0.00 | 0.00 | 0.00 | 34 | 1014.6 |
| 20260503182503 | 76 | 277 | 0.0 | 1.0 | 0.00 | 0.00 | 0.00 | 34 | 1014.6 |
| 20260503182003 | 76 | 175 | 0.0 | 2.0 | 0.00 | 0.00 | 0.00 | 37 | 1014.7 |
| 20260503181718 | 76 | 167 | 0.0 | 3.0 | 0.00 | 0.00 | 0.00 | 37 | 1014.7 |
| 20260503181003 | 75 | 150 | 0.0 | 3.0 | 0.00 | 0.00 | 0.00 | 40 | 1014.7 |
| 20260503180503 | 74 | 114 | 0.0 | 2.0 | 0.00 | 0.00 | 0.00 | 40 | 1014.7 |
| 20260503180004 | 74 | 133 | 0.0 | 3.0 | 0.00 | 0.00 | 0.00 | 39 | 1014.7 |
| 20260503175718 | 75 | 0 | 0.0 | 3.0 | 0.00 | 0.00 | 0.00 | 41 | 1014.8 |
| 20260503175003 | 74 | 0 | 0.0 | 2.0 | 0.00 | 0.00 | 0.00 | 42 | 1014.9 |
| 20260503174503 | 74 | 0 | 0.0 | 2.0 | 0.00 | 0.00 | 0.00 | 42 | 1014.9 |
| 20260503174003 | 74 | 0 | 0.0 | 2.0 | 0.00 | 0.00 | 0.00 | 39 | 1015.0 |
| 20260503173718 | 74 | 0 | 0.0 | 2.0 | 0.00 | 0.00 | 0.00 | 40 | 1015.0 |
| 20260503173003 | 72 | 110 | 1.0 | 2.0 | 0.00 | 0.00 | 0.00 | 44 | 1015.0 |
| 20260503172504 | 71 | 131 | 1.0 | 3.0 | 0.00 | 0.00 | 0.00 | 47 | 1015.0 |
| 20260503172003 | 71 | 128 | 1.0 | 3.0 | 0.00 | 0.00 | 0.00 | 45 | 1015.1 |
| 20260503171503 | 70 | 85 | 1.0 | 3.0 | 0.00 | 0.00 | 0.00 | 43 | 1015.1 |
| 20260503171003 | 70 | 82 | 1.0 | 3.0 | 0.00 | 0.00 | 0.00 | 44 | 1015.1 |
| 20260503170503 | 70 | 96 | 1.0 | 4.0 | 0.00 | 0.00 | 0.00 | 46 | 1015.2 |
| 20260503170217 | 69 | 76 | 1.0 | 4.0 | 0.00 | 0.00 | 0.00 | 49 | 1015.2 |
| 20260503151003 | 58 | 94 | 1.0 | 3.0 | 0.00 | 0.00 | 0.00 | 69 | 1015.3 |
| 20260503150717 | 58 | 96 | 0.0 | 3.0 | 0.00 | 0.00 | 0.00 | 70 | 1015.3 |
| 20260503131003 | 40 | 0 | 0.0 | 0.0 | 0.00 | 0.00 | 0.00 | 91 | 1015.0 |
| 20260503130503 | 39 | 0 | 0.0 | 0.0 | 0.00 | 0.00 | 0.00 | 91 | 1015.0 |
| 20260503130217 | 39 | 0 | 0.0 | 0.0 | 0.00 | 0.00 | 0.00 | 91 | 1015.0 |
| 20260503110504 | 39 | 0 | 1.0 | 1.0 | 0.00 | 0.00 | 0.00 | 90 | 1015.1 |
| 20260503081503 | 41 | 0 | 0.0 | 0.0 | 0.00 | 0.00 | 0.00 | 87 | 1015.0 |
| 20260503081003 | 42 | 0 | 0.0 | 0.0 | 0.00 | 0.00 | 0.00 | 86 | 1014.9 |
| 20260503080503 | 42 | 0 | 0.0 | 0.0 | 0.00 | 0.00 | 0.00 | 87 | 1014.9 |
| 20260503072503 | 43 | 0 | 0.0 | 0.0 | 0.00 | 0.00 | 0.00 | 85 | 1014.8 |
| 20260503072003 | 43 | 0 | 1.0 | 1.0 | 0.00 | 0.00 | 0.00 | 84 | 1014.9 |
| 20260503071503 | 44 | 0 | 1.0 | 1.0 | 0.00 | 0.00 | 0.00 | 83 | 1014.9 |
| 20260503071003 | 44 | 0 | 1.0 | 1.0 | 0.00 | 0.00 | 0.00 | 84 | 1014.8 |
| 20260503070503 | 44 | 0 | 0.0 | 0.0 | 0.00 | 0.00 | 0.00 | 84 | 1014.7 |
| 20260503054717 | 46 | 0 | 1.0 | 1.0 | 0.00 | 0.00 | 0.00 | 81 | 1014.7 |
| 20260503054003 | 47 | 0 | 1.0 | 1.0 | 0.00 | 0.00 | 0.00 | 81 | 1014.8 |
| 20260503053717 | 47 | 0 | 0.0 | 0.0 | 0.00 | 0.00 | 0.00 | 81 | 1014.7 |
| 20260503053003 | 47 | 0 | 0.0 | 0.0 | 0.00 | 0.00 | 0.00 | 81 | 1014.8 |
| 20260503052717 | 47 | 0 | 1.0 | 1.0 | 0.00 | 0.00 | 0.00 | 81 | 1014.8 |
| 20260503052218 | 47 | 0 | 1.0 | 1.0 | 0.00 | 0.00 | 0.00 | 82 | 1014.8 |
| 20260503051503 | 47 | 0 | 1.0 | 1.0 | 0.00 | 0.00 | 0.00 | 80 | 1014.8 |
| 20260503051003 | 47 | 0 | 2.0 | 2.0 | 0.00 | 0.00 | 0.00 | 79 | 1014.8 |
| 20260503050503 | 48 | 0 | 2.0 | 2.0 | 0.00 | 0.00 | 0.00 | 79 | 1014.8 |
| 20260503050003 | 48 | 0 | 0.0 | 1.0 | 0.00 | 0.00 | 0.00 | 79 | 1014.8 |
| 20260503045503 | 48 | 141 | 0.0 | 2.0 | 0.00 | 0.00 | 0.00 | 79 | 1014.8 |
| 20260503045003 | 48 | 141 | 0.0 | 2.0 | 0.00 | 0.00 | 0.00 | 79 | 1014.7 |
| 20260503044503 | 48 | 141 | 0.0 | 1.0 | 0.00 | 0.00 | 0.00 | 77 | 1014.7 |
| 20260503044219 | 49 | 141 | 0.0 | 1.0 | 0.00 | 0.00 | 0.00 | 77 | 1014.7 |
| 20260503043503 | 49 | 0 | 0.0 | 2.0 | 0.00 | 0.00 | 0.00 | 75 | 1014.7 |
| 20260503043003 | 50 | 142 | 0.0 | 2.0 | 0.00 | 0.00 | 0.00 | 74 | 1014.7 |
| 20260503042503 | 51 | 143 | 1.0 | 2.0 | 0.00 | 0.00 | 0.00 | 73 | 1014.6 |
| 20260503042003 | 52 | 142 | 1.0 | 2.0 | 0.00 | 0.00 | 0.00 | 72 | 1014.5 |
| 20260503041503 | 52 | 142 | 1.0 | 2.0 | 0.00 | 0.00 | 0.00 | 71 | 1014.5 |
| 20260503041003 | 52 | 142 | 1.0 | 2.0 | 0.00 | 0.00 | 0.00 | 71 | 1014.5 |
| 20260503040503 | 52 | 144 | 1.0 | 3.0 | 0.00 | 0.00 | 0.00 | 71 | 1014.5 |
| 20260503040004 | 52 | 145 | 0.0 | 3.0 | 0.00 | 0.00 | 0.00 | 71 | 1014.5 |
| 20260503035503 | 52 | 0 | 0.0 | 2.0 | 0.00 | 0.00 | 0.00 | 70 | 1014.5 |
| 20260503035218 | 53 | 0 | 0.0 | 2.0 | 0.00 | 0.00 | 0.00 | 70 | 1014.4 |
| 20260503034503 | 54 | 0 | 0.0 | 3.0 | 0.00 | 0.00 | 0.00 | 68 | 1014.3 |
| 20260503034003 | 55 | 0 | 0.0 | 3.0 | 0.00 | 0.00 | 0.00 | 68 | 1014.2 |
| 20260503033503 | 56 | 0 | 0.0 | 2.0 | 0.00 | 0.00 | 0.00 | 65 | 1014.2 |
| 20260503033004 | 57 | 0 | 0.0 | 2.0 | 0.00 | 0.00 | 0.00 | 64 | 1014.2 |
| 20260503032503 | 58 | 0 | 0.0 | 1.0 | 0.00 | 0.00 | 0.00 | 62 | 1014.1 |
| 20260503032217 | 59 | 0 | 2.0 | 2.0 | 0.00 | 0.00 | 0.00 | 62 | 1014.0 |
| 20260503031503 | 60 | 144 | 0.0 | 2.0 | 0.00 | 0.00 | 0.00 | 60 | 1013.9 |
| 20260503031003 | 61 | 0 | 0.0 | 2.0 | 0.00 | 0.00 | 0.00 | 58 | 1013.9 |
| 20260503030503 | 62 | 0 | 0.0 | 2.0 | 0.00 | 0.00 | 0.00 | 56 | 1013.9 |
| 20260503030003 | 64 | 0 | 0.0 | 1.0 | 0.00 | 0.00 | 0.00 | 53 | 1013.9 |
| 20260503025503 | 65 | 0 | 0.0 | 0.0 | 0.00 | 0.00 | 0.00 | 52 | 1013.9 |
| 20260503025003 | 66 | 0 | 0.0 | 0.0 | 0.00 | 0.00 | 0.00 | 50 | 1013.9 |
| 20260503024503 | 67 | 0 | 0.0 | 0.0 | 0.00 | 0.00 | 0.00 | 47 | 1013.9 |
| 20260503024003 | 68 | 0 | 0.0 | 1.0 | 0.00 | 0.00 | 0.00 | 47 | 1013.8 |
| 20260503023503 | 69 | 0 | 0.0 | 1.0 | 0.00 | 0.00 | 0.00 | 44 | 1013.8 |
| 20260503023003 | 69 | 0 | 0.0 | 0.0 | 0.00 | 0.00 | 0.00 | 42 | 1013.7 |
| 20260503022503 | 70 | 0 | 0.0 | 1.0 | 0.00 | 0.00 | 0.00 | 42 | 1013.7 |
| 20260503022217 | 70 | 0 | 0.0 | 1.0 | 0.00 | 0.00 | 0.00 | 42 | 1013.7 |
| 20260503021503 | 70 | 346 | 1.0 | 2.0 | 0.00 | 0.00 | 0.00 | 41 | 1013.7 |
| 20260503021003 | 71 | 351 | 1.0 | 4.0 | 0.00 | 0.00 | 0.00 | 40 | 1013.7 |
| 20260503020503 | 71 | 345 | 1.0 | 4.0 | 0.00 | 0.00 | 0.00 | 39 | 1013.7 |
| 20260503020003 | 72 | 339 | 1.0 | 4.0 | 0.00 | 0.00 | 0.00 | 38 | 1013.7 |
| 20260503015503 | 72 | 336 | 1.0 | 4.0 | 0.00 | 0.00 | 0.00 | 37 | 1013.7 |
| 20260503015003 | 73 | 343 | 1.0 | 3.0 | 0.00 | 0.00 | 0.00 | 37 | 1013.7 |
| 20260503014503 | 73 | 349 | 2.0 | 4.0 | 0.00 | 0.00 | 0.00 | 36 | 1013.7 |
| 20260503014003 | 73 | 351 | 1.0 | 5.0 | 0.00 | 0.00 | 0.00 | 33 | 1013.7 |
| 20260503013503 | 74 | 348 | 1.0 | 5.0 | 0.00 | 0.00 | 0.00 | 34 | 1013.7 |
| 20260503013003 | 75 | 339 | 0.0 | 4.0 | 0.00 | 0.00 | 0.00 | 32 | 1013.7 |
| 20260503012503 | 75 | 0 | 0.0 | 1.0 | 0.00 | 0.00 | 0.00 | 33 | 1013.7 |
| 20260503012003 | 75 | 0 | 0.0 | 1.0 | 0.00 | 0.00 | 0.00 | 32 | 1013.7 |
| 20260503011503 | 75 | 0 | 0.0 | 2.0 | 0.00 | 0.00 | 0.00 | 33 | 1013.7 |
| 20260503011003 | 75 | 0 | 0.0 | 2.0 | 0.00 | 0.00 | 0.00 | 32 | 1013.7 |
| 20260503010718 | 75 | 0 | 0.0 | 1.0 | 0.00 | 0.00 | 0.00 | 31 | 1013.7 |
| 20260503010003 | 76 | 0 | 0.0 | 2.0 | 0.00 | 0.00 | 0.00 | 32 | 1013.8 |
| 20260503005503 | 76 | 228 | 0.0 | 2.0 | 0.00 | 0.00 | 0.00 | 31 | 1013.8 |
| 20260503005003 | 77 | 319 | 0.0 | 2.0 | 0.00 | 0.00 | 0.00 | 29 | 1013.8 |
| 20260503004503 | 77 | 318 | 0.0 | 2.0 | 0.00 | 0.00 | 0.00 | 28 | 1013.8 |
| 20260503004003 | 79 | 0 | 0.0 | 2.0 | 0.00 | 0.00 | 0.00 | 28 | 1013.7 |
| 20260503003503 | 79 | 268 | 0.0 | 1.0 | 0.00 | 0.00 | 0.00 | 26 | 1013.8 |
| 20260503003003 | 78 | 337 | 1.0 | 2.0 | 0.00 | 0.00 | 0.00 | 28 | 1013.8 |
| 20260503002503 | 78 | 331 | 1.0 | 3.0 | 0.00 | 0.00 | 0.00 | 28 | 1013.8 |
| 20260503002003 | 77 | 330 | 0.0 | 3.0 | 0.00 | 0.00 | 0.00 | 27 | 1013.9 |
| 20260503001503 | 78 | 0 | 0.0 | 2.0 | 0.00 | 0.00 | 0.00 | 31 | 1013.9 |
| 20260503001003 | 77 | 1 | 0.0 | 2.0 | 0.00 | 0.00 | 0.00 | 27 | 1013.9 |
| 20260503000503 | 77 | 7 | 1.0 | 2.0 | 0.00 | 0.00 | 0.00 | 26 | 1013.9 |
| 20260503000003 | 77 | 65 | 1.0 | 3.0 | 0.00 | 0.00 | 0.00 | 31 | 1013.9 |
| 20260502235503 | 77 | 58 | 1.0 | 3.0 | 0.00 | 0.00 | 0.00 | 33 | 1014.0 |
| 20260502235003 | 77 | 344 | 1.0 | 4.0 | 0.00 | 0.00 | 0.00 | 28 | 1014.0 |
| 20260502234503 | 78 | 314 | 1.0 | 4.0 | 0.00 | 0.00 | 0.00 | 25 | 1014.0 |
| 20260502234003 | 78 | 299 | 1.0 | 3.0 | 0.00 | 0.00 | 0.00 | 27 | 1014.1 |
| 20260502233503 | 78 | 55 | 1.0 | 3.0 | 0.00 | 0.00 | 0.00 | 28 | 1014.1 |
| 20260502233003 | 78 | 64 | 1.0 | 4.0 | 0.00 | 0.00 | 0.00 | 25 | 1014.2 |
| 20260502232505 | 78 | 158 | 1.0 | 4.0 | 0.00 | 0.00 | 0.00 | 29 | 1014.2 |
| 20260502232218 | 79 | 188 | 0.0 | 4.0 | 0.00 | 0.00 | 0.00 | 30 | 1014.3 |
| 20260502231503 | 78 | 82 | 0.0 | 4.0 | 0.00 | 0.00 | 0.00 | 28 | 1014.4 |
| 20260502231003 | 78 | 36 | 1.0 | 2.0 | 0.00 | 0.00 | 0.00 | 30 | 1014.3 |
| 20260502230503 | 77 | 27 | 1.0 | 3.0 | 0.00 | 0.00 | 0.00 | 28 | 1014.3 |
| 20260502230003 | 78 | 44 | 1.0 | 4.0 | 0.00 | 0.00 | 0.00 | 30 | 1014.5 |
| 20260502225503 | 78 | 53 | 1.0 | 4.0 | 0.00 | 0.00 | 0.00 | 30 | 1014.5 |
| 20260502225218 | 78 | 72 | 1.0 | 4.0 | 0.00 | 0.00 | 0.00 | 30 | 1014.6 |
| 20260502224503 | 79 | 129 | 1.0 | 3.0 | 0.00 | 0.00 | 0.00 | 30 | 1014.6 |
| 20260502224003 | 78 | 154 | 1.0 | 3.0 | 0.00 | 0.00 | 0.00 | 26 | 1014.6 |
| 20260502223503 | 78 | 102 | 1.0 | 4.0 | 0.00 | 0.00 | 0.00 | 25 | 1014.7 |
| 20260502223003 | 77 | 49 | 1.0 | 4.0 | 0.00 | 0.00 | 0.00 | 26 | 1014.8 |
| 20260502222503 | 77 | 50 | 1.0 | 4.0 | 0.00 | 0.00 | 0.00 | 28 | 1014.9 |
| 20260502222003 | 77 | 55 | 2.0 | 4.0 | 0.00 | 0.00 | 0.00 | 26 | 1014.9 |
| 20260502221503 | 77 | 70 | 1.0 | 4.0 | 0.00 | 0.00 | 0.00 | 29 | 1014.9 |
| 20260502221003 | 77 | 73 | 1.0 | 5.0 | 0.00 | 0.00 | 0.00 | 31 | 1015.0 |
| 20260502220503 | 78 | 72 | 1.0 | 5.0 | 0.00 | 0.00 | 0.00 | 26 | 1015.0 |
| 20260502220003 | 78 | 103 | 1.0 | 5.0 | 0.00 | 0.00 | 0.00 | 25 | 1015.1 |
| 20260502215503 | 77 | 85 | 1.0 | 5.0 | 0.00 | 0.00 | 0.00 | 27 | 1015.2 |
| 20260502215003 | 77 | 50 | 1.0 | 3.0 | 0.00 | 0.00 | 0.00 | 26 | 1015.2 |
| 20260502214503 | 77 | 8 | 1.0 | 3.0 | 0.00 | 0.00 | 0.00 | 28 | 1015.3 |
| 20260502214003 | 77 | 1 | 1.0 | 3.0 | 0.00 | 0.00 | 0.00 | 26 | 1015.3 |
| 20260502213503 | 77 | 34 | 1.0 | 4.0 | 0.00 | 0.00 | 0.00 | 28 | 1015.3 |
| 20260502213217 | 77 | 35 | 1.0 | 4.0 | 0.00 | 0.00 | 0.00 | 27 | 1015.4 |